Location: Cz?stochówka
(50.8142°N, 19.0915°E)
Time: 08:18:31
(UTC+00:00)

Cosmos 2227 Rocket - Pass Details

Date: 13 January 2026
Orbit: 837 x 845 km, 71.0° (Epoch: 17 February)

Event Time Altitude Azimuth Distance (km) Brightness Sun altitude
Exits shadow 03:17:53 12° 2° (N) 2,296 4.5 -31.3°
Drops below altitude 10° 03:18:42 10° 9° (N) 2,468 4.7 -31.1°
Sets 03:22:05 0° 30° (NNE) 3,407 5.8 -30.6°
